This demonstration page uses our WeatherBlox Daily Observations layout. Learn more.

Left ArrowRight Arrow

Hourly Observations for October 20, 2016

Temp ( °F °C ) Dew Point ( °F °C ) Humidity (%) Winds ( mph kmh ) Pressure ( in mb ) Visibility ( mi km ) Precip ( " mm )
12:51 am 00:51 Clear 56 13.3 32 0 40 40 ESE 3 6 29.96 1015 10 16 0.00 0.03
1:51 am 01:51 Clear 53 11.7 33 0.6 47 47 Calm 29.98 1015 10 16 0.00 0.00
2:51 am 02:51 Clear 53 11.7 32 0 45 45 Calm 29.98 1015 10 16 0.00 0.03
3:51 am 03:51 Clear 51 10.6 33 0.6 50 50 SE 3 6 30.00 1016 10 16 0.00 0.00
4:51 am 04:51 Clear 53 11.7 32 0 45 45 SE 8 13 30.02 1017 10 16 0.00 0.00
5:51 am 05:51 Clear 53 11.7 31 -0.6 43 43 SSE 12 19 30.06 1018 10 16 0.00 0.00
6:51 am 06:51 undefined N/A N/A N/A undefined N/A N/A N/A 0.00 0.00
7:51 am 07:51 undefined N/A N/A N/A undefined N/A N/A N/A 0.00 0.00
8:51 am 08:51 Sunny 69 20.6 31 -0.6 24 24 S 12 19 30.14 1021 10 16 0.00 0.00
9:51 am 09:51 Sunny 72 22.2 28 -2.2 19 19 SSE 12 19 30.16 1021 10 16 0.00 0.00
10:51 am 10:51 Sunny 77 25 30 -1.1 18 18 ESE 10 17 30.14 1021 10 16 0.00 0.00
11:51 am 11:51 Partly Cloudy 80 26.7 34 1.1 19 19 SSE 14 22 30.11 1020 10 16 0.00 0.00
12:51 pm 12:51 Sunny 81 27.2 38 3.3 21 21 SE 17 28 30.08 1019 10 16 0.00 0.00
1:51 pm 13:51 Sunny 82 27.8 38 3.3 21 21 SE 17 28 30.06 1018 10 16 0.00 0.00
2:51 pm 14:51 Sunny 82 27.8 38 3.3 21 21 SE 15 24 30.04 1017 10 16 0.00 0.00
3:51 pm 15:51 Sunny 81 27.2 37 2.8 21 21 SSE 17 28 30.04 1017 10 16 0.00 0.00
4:51 pm 16:51 Sunny 80 26.7 37 2.8 21 21 SSE 13 20 30.04 1017 10 16 0.00 0.00
5:51 pm 17:51 Clear 75 23.9 38 3.3 26 26 SE 9 15 30.05 1018 10 16 0.00 0.00
6:51 pm 18:51 Clear 69 20.6 38 3.3 32 32 E 8 13 30.03 1017 10 16 0.00 0.00
7:51 pm 19:51 Clear with Light Rain 68 20 38 3.3 33 33 E 8 13 30.06 1018 10 16 0.00 0.03
8:51 pm 20:51 Clear 69 20.6 36 2.2 30 30 E 10 17 30.06 1018 10 16 0.00 0.03
9:51 pm 21:51 Clear 68 20 36 2.2 31 31 ESE 10 17 30.08 1019 10 16 0.00 0.00
10:51 pm 22:51 Clear 64 17.8 36 2.2 35 35 E 8 13 30.08 1019 10 16 0.00 0.00
11:51 pm 23:51 Clear 64 17.8 36 2.2 35 35 E 12 19 30.08 1019 10 16 0.00 0.00

Powered by AerisWeather